Location: Broekland
(52.3610°N, 6.2005°E)
Time: 18:35:08
(UTC+00:00)

Cosmos 1782 - Pass Details

Date: 19 May 2025
Orbit: 478 x 490 km, 82.5° (Epoch: 19 June)

Event Time Altitude Azimuth Distance (km) Brightness Sun altitude
Rises 20:21:22 0° 205° (SSW) 2,561 6.0 -6.7°
Reaches altitude 10° 20:23:33 10° 213° (SSW) 1,682 5.2 -6.9°
Maximum altitude 20:27:04 43° 286° (WNW) 700 3.9 -7.3°
Drops below altitude 10° 20:30:37 10° 359° (N) 1,690 6.1 -7.7°
Sets 20:32:49 0° 6° (N) 2,574 6.9 -7.9°
